{"data":{"norad_id":49258,"intl_designator":"2021-087A","name":"SHIYAN-10 01 (SY-10 01)","alt_names":[],"object_type":"PAYLOAD","status":"ACTIVE","operator":null,"country":"PRC","launch_date":"2021-09-27","launch_site_code":"XICLF","launch_vehicle":null,"mission":null,"orbit_class":"UNKNOWN","rcs_meters":null,"size_class":null,"mass_kg":null,"dimensions":null,"purposes":[],"wikipedia_slug":null,"has_3d_model":false,"image_url":null,"decayed_at":null,"tle_current":{"epoch":"2026-09-20T02:46:54.696576Z","epoch_age_seconds":126551,"freshness":"FRESH","line1":"1 49258U 21087A   26263.11591084  .00000651  00000+0  00000+0 0  9994","line2":"2 49258  63.1356 209.3305 6883703 269.7132  18.0216  2.00597649 36437","mean_motion":2.00597649,"eccentricity":0.6883703,"inclination_deg":63.1356,"raan_deg":209.3305,"arg_perigee_deg":269.7132,"mean_anomaly_deg":18.0216,"bstar":0,"rev_number":3643,"period_min":717.85487376275,"perigee_km":1897.9196935031,"apogee_km":38460.491418366,"semimajor_km":26557.342555934,"source":"CELESTRAK","updated_at":"2026-09-21T09:00:08.031028Z"}}}